Location: Champs
(48.8539°N, 2.6040°E)
Time: 12:35:41
(UTC+00:00)

Cosmos 1538 Rocket - Pass Details

Date: 27 May 2022
Orbit: 752 x 791 km, 74.0° (Epoch: 28 June)

Event Time Altitude Azimuth Distance (km) Brightness Sun altitude
Rises 20:37:01 0° 340° (NNW) 3,257 8.6 -8.0°
Reaches altitude 10° 20:39:33 10° 347° (NNW) 2,320 7.5 -8.3°
Maximum altitude 20:44:33 43° 59° (ENE) 1,073 4.7 -8.9°
Enters shadow 20:49:09 12° 129° (SE) 2,172 5.7 -9.4°
